Location: Unspecified
(0.0000°N, 0.0000°E)
Time: 07:37:56
(UTC+00:00)

Tiangong - Pass Details

Date: 23 July 2021
Orbit: 373 x 386 km, 41.5° (Epoch: 01 August)

Event Time Altitude Azimuth Distance (km) Brightness Sun altitude
Rises 19:40:01 0° 317° (NW) 2,216 6.0 -21.9°
Reaches altitude 10° 19:42:04 10° 319° (NW) 1,367 4.7 -22.4°
Enters shadow 19:43:59 34° 327° (NNW) 634 2.5 -22.8°
